Location: Callanans Corners
(42.5326°N, 73.8846°W)
Time: 14:58:33
(UTC+00:00)

Timation 2 Rocket - Pass Details

Date: 06 October 2022
Orbit: 907 x 1073 km, 70.0° (Epoch: 28 November)

Event Time Altitude Azimuth Distance (km) Brightness Sun altitude
Rises 22:51:49 0° 334° (NNW) 3,730 7.4 -5.2°
Reaches altitude 10° 22:54:26 10° 334° (NNW) 2,752 6.7 -5.7°
Maximum altitude 23:00:51 87° 64° (ENE) 962 4.0 -6.8°
Drops below altitude 10° 23:06:58 10° 155° (SSE) 2,628 6.0 -8.0°
Sets 23:09:25 0° 155° (SSE) 3,552 6.7 -8.4°
